Weather History for Mammoth, CA

Change the Weather History Date:

Tuesday, January 28, 2014

  Actual Average Record
Temperature  
Mean Temperature 45 °F -  
Max Temperature 60 °F 34 °F 60 °F (2014)
Min Temperature 30 °F 20 °F 1 °F (1999)
Degree Days  
Heating Degree Days 20    
Moisture  
Dew Point 19 °F    
Average Humidity 42    
Maximum Humidity 80    
Minimum Humidity 24    
Precipitation  
Precipitation 0.00 in - - ()
Sea Level Pressure  
Sea Level Pressure 30.27 in    
Wind  
Wind Speed 2 mph (ENE)    
Max Wind Speed 8 mph    
Max Gust Speed -    
Visibility 10 miles    
Events      
Averages and records for this station are not official NWS values.
T = Trace of Precipitation, MM = Missing Value Source: NWS Daily Summary

Daily Weather History Graph

Daily Weather History Graph

Search for Another Location

Airport:

Trip Planner

Search our weather history database for the weather conditions in past years. The results will help you decide how hot, cold, wet, or windy it might be!

Date:

Astronomy

Jan. 28, 2014 Rise Set
Actual Time 7:02 AM PST 5:14 PM PST
Civil Twilight 6:34 AM PST 5:42 PM PST
Nautical Twilight 6:02 AM PST 6:14 PM PST
Astronomical Twilight 5:31 AM PST 6:45 PM PST
Moon 4:47 AM PST (1/28) 3:11 PM PST (1/28)
Length of Visible Light 11h 08m
Length of Day
10h 12m
Waning Crescent, 6% of the Moon is Illuminated
Jan 28
Waning Crescent
Jan 30
New
Feb 6
First Quarter
Feb 14
Full
Feb 22
Last Quarter

Hourly Weather History & Observations

Time (PST) Temp. Windchill Dew Point Humidity Pressure Visibility Wind Dir Wind Speed Gust Speed Precip Events Conditions
12:15 AM 32.0 °F 28.7 °F 8.6 °F 38% 30.25 in 10.0 mi NNW 3.5 mph - N/A   Scattered Clouds
12:35 AM 32.0 °F - 8.6 °F 38% 30.24 in 10.0 mi Calm Calm - N/A   Scattered Clouds
12:55 AM 32.0 °F - 10.4 °F 41% 30.25 in 10.0 mi Calm Calm - N/A   Mostly Cloudy
1:15 AM 33.8 °F - 10.4 °F 38% 30.24 in 10.0 mi Calm Calm - N/A   Overcast
1:35 AM 32.0 °F 26.4 °F 8.6 °F 38% 30.23 in 10.0 mi SE 5.8 mph - N/A   Mostly Cloudy
1:55 AM 32.0 °F - 8.6 °F 38% 30.24 in 10.0 mi Calm Calm - N/A   Scattered Clouds
2:15 AM 30.2 °F - 8.6 °F 40% 30.26 in 10.0 mi Calm Calm - N/A   Mostly Cloudy
2:35 AM 32.0 °F - 8.6 °F 38% 30.24 in 10.0 mi Calm Calm - N/A   Overcast
2:55 AM 32.0 °F 28.7 °F 10.4 °F 41% 30.25 in 10.0 mi West 3.5 mph - N/A   Overcast
3:15 AM 32.0 °F 28.7 °F 8.6 °F 38% 30.23 in 10.0 mi NNE 3.5 mph - N/A   Overcast
3:35 AM 32.0 °F - 10.4 °F 41% 30.24 in 10.0 mi Calm Calm - N/A   Overcast
3:55 AM 32.0 °F - 8.6 °F 38% 30.24 in 10.0 mi Calm Calm - N/A   Overcast
4:15 AM 33.8 °F - 8.6 °F 35% 30.24 in 10.0 mi Calm Calm - N/A   Overcast
4:35 AM 32.0 °F - 8.6 °F 38% 30.25 in 10.0 mi Calm Calm - N/A   Overcast
4:55 AM 33.8 °F - 10.4 °F 38% 30.24 in 10.0 mi Calm Calm - N/A   Overcast
5:15 AM 33.8 °F - 8.6 °F 35% 30.25 in 10.0 mi Calm Calm - N/A   Overcast
5:35 AM 33.8 °F - 8.6 °F 35% 30.25 in 10.0 mi Calm Calm - N/A   Overcast
5:55 AM 35.6 °F - 8.6 °F 33% 30.26 in 10.0 mi Calm Calm - N/A   Overcast
6:15 AM 35.6 °F - 10.4 °F 35% 30.27 in 10.0 mi Calm Calm - N/A   Overcast
6:35 AM 37.4 °F - 10.4 °F 33% 30.27 in 10.0 mi Calm Calm - N/A   Overcast
6:55 AM 35.6 °F - 10.4 °F 35% 30.27 in 10.0 mi Calm Calm - N/A   Scattered Clouds
7:15 AM 35.6 °F 31.7 °F 10.4 °F 35% 30.27 in 10.0 mi North 4.6 mph - N/A   Mostly Cloudy
7:35 AM 37.4 °F - 12.2 °F 36% 30.28 in 10.0 mi Calm Calm - N/A   Overcast
7:55 AM 39.2 °F - 12.2 °F 33% 30.28 in 10.0 mi Calm Calm - N/A   Overcast
8:15 AM 39.2 °F - 12.2 °F 33% 30.28 in 10.0 mi Calm Calm - N/A   Overcast
8:35 AM 39.2 °F 35.9 °F 10.4 °F 31% 30.29 in 10.0 mi South 4.6 mph - N/A   Overcast
8:55 AM 41.0 °F - 12.2 °F 31% 30.30 in 10.0 mi Calm Calm - N/A   Overcast
9:15 AM 46.4 °F - 14.0 °F 27% 30.29 in 10.0 mi Calm Calm - N/A   Overcast
9:35 AM 48.2 °F - 14.0 °F 25% 30.28 in 10.0 mi ESE 6.9 mph - N/A   Overcast
9:55 AM 48.2 °F - 12.2 °F 24% 30.30 in 10.0 mi ESE 8.1 mph - N/A   Overcast
10:15 AM 46.4 °F 42.9 °F 12.2 °F 25% 30.30 in 10.0 mi ESE 6.9 mph - N/A   Overcast
10:35 AM 48.2 °F - 14.0 °F 25% 30.30 in 10.0 mi ESE 4.6 mph - N/A   Overcast
10:55 AM 48.2 °F - 14.0 °F 25% 30.30 in 10.0 mi SE 3.5 mph - N/A   Overcast
11:15 AM 50.0 °F - 15.8 °F 26% 30.30 in 10.0 mi Calm Calm - N/A   Overcast
11:35 AM 50.0 °F - 17.6 °F 28% 30.29 in 10.0 mi Calm Calm - N/A   Overcast
11:55 AM 50.0 °F - 19.4 °F 30% 30.28 in 10.0 mi Calm Calm - N/A   Overcast
12:15 PM 51.8 °F - 19.4 °F 28% 30.27 in 10.0 mi Calm Calm - N/A   Overcast
12:35 PM 51.8 °F - 19.4 °F 28% 30.26 in 10.0 mi SE 3.5 mph - N/A   Mostly Cloudy
12:55 PM 53.6 °F - 21.2 °F 28% 30.25 in 10.0 mi SE 4.6 mph - N/A   Scattered Clouds
1:15 PM 55.4 °F - 21.2 °F 26% 30.24 in 10.0 mi South 3.5 mph - N/A   Mostly Cloudy
1:35 PM 57.2 °F - 21.2 °F 25% 30.24 in 10.0 mi SSE 3.5 mph - N/A   Mostly Cloudy
1:55 PM 57.2 °F - 23.0 °F 27% 30.23 in 10.0 mi North 6.9 mph - N/A   Mostly Cloudy
2:15 PM 59.0 °F - 23.0 °F 25% 30.23 in 10.0 mi East 6.9 mph - N/A   Scattered Clouds
2:35 PM 59.0 °F - 24.8 °F 27% 30.24 in 10.0 mi ESE 3.5 mph - N/A   Clear
2:55 PM 57.2 °F - 24.8 °F 29% 30.24 in 7.0 mi Calm Calm - N/A   Clear
3:15 PM 60.8 °F - 28.4 °F 29% 30.24 in 10.0 mi NNE 4.6 mph - N/A   Clear
3:35 PM 59.0 °F - 28.4 °F 31% 30.24 in 10.0 mi North 4.6 mph - N/A   Clear
3:55 PM 59.0 °F - 28.4 °F 31% 30.24 in 10.0 mi North 4.6 mph - N/A   Clear
4:15 PM 57.2 °F - 28.4 °F 33% 30.25 in 10.0 mi North 6.9 mph - N/A   Clear
4:35 PM 55.4 °F - 28.4 °F 36% 30.26 in 10.0 mi North 5.8 mph - N/A   Clear
4:55 PM 53.6 °F - 28.4 °F 38% 30.26 in 10.0 mi North 6.9 mph - N/A   Clear
5:15 PM 50.0 °F - 28.4 °F 43% 30.26 in 10.0 mi Calm Calm - N/A   Clear
5:35 PM 48.2 °F - 28.4 °F 46% 30.27 in 10.0 mi Calm Calm - N/A   Clear
5:55 PM 46.4 °F - 28.4 °F 50% 30.28 in 10.0 mi Calm Calm - N/A   Clear
6:15 PM 46.4 °F - 26.6 °F 46% 30.27 in 10.0 mi Calm Calm - N/A   Clear
6:35 PM 41.0 °F - 24.8 °F 53% 30.28 in 10.0 mi Calm Calm - N/A   Clear
6:55 PM 41.0 °F - 26.6 °F 57% 30.28 in 10.0 mi Calm Calm - N/A   Clear
7:15 PM 39.2 °F 35.0 °F 26.6 °F 61% 30.29 in 10.0 mi West 5.8 mph - N/A   Clear
7:35 PM 39.2 °F - 28.4 °F 65% 30.30 in 10.0 mi Calm Calm - N/A   Clear
7:55 PM 39.2 °F - 28.4 °F 65% 30.31 in 10.0 mi Calm Calm - N/A   Clear
8:15 PM 37.4 °F - 28.4 °F 70% 30.30 in 10.0 mi Calm Calm - N/A   Clear
8:35 PM 37.4 °F 33.8 °F 28.4 °F 70% 30.31 in 10.0 mi North 4.6 mph - N/A   Clear
8:55 PM 35.6 °F 31.7 °F 26.6 °F 70% 30.31 in 10.0 mi West 4.6 mph - N/A   Clear
9:15 PM 37.4 °F - 28.4 °F 70% 30.31 in 10.0 mi Calm Calm - N/A   Clear
9:35 PM 35.6 °F 32.8 °F 28.4 °F 75% 30.30 in 10.0 mi West 3.5 mph - N/A   Clear
9:55 PM 35.6 °F 32.8 °F 28.4 °F 75% 30.31 in 10.0 mi WNW 3.5 mph - N/A   Clear
10:15 PM 35.6 °F - 28.4 °F 75% 30.31 in 10.0 mi Calm Calm - N/A   Clear
10:35 PM 35.6 °F - 26.6 °F 70% 30.30 in 10.0 mi Calm Calm - N/A   Clear
10:55 PM 33.8 °F - 26.6 °F 75% 30.30 in 10.0 mi Calm Calm - N/A   Clear
11:15 PM 32.0 °F - 26.6 °F 80% 30.30 in 10.0 mi Calm Calm - N/A   Clear
11:35 PM 33.8 °F - 26.6 °F 75% 30.30 in 10.0 mi Calm Calm - N/A   Clear
11:55 PM 32.0 °F - 24.8 °F 75% 30.29 in 10.0 mi Calm Calm - N/A   Clear